[[{"header":{"parameterUnit":"m.s-1","parameterCategory":1,"la1":30.2991,"la2":30.254,"lo1":-89.0895,"lo2":-89.0444,"dy":0.0017,"dx":0.0017,"nx":28,"ny":28,"refTime":"2024-10-07T03:00:00:Z","depth":0,"parameterNumber":2,"parameterNumberName":"U-component_of_WINDS"},"data":[0,0,0,0,0,0,0,0,0,0,0,0,0,0,0,0,0,0,0,0,0,0,0,0,0,0,0,0,0,0,0,0,0,0,0,0,0,0,0,0,0,0,0,0,0,0,0,0,0,0,0,0,0,0,0,0,0,0,-0.5361,-0.5362,0,-0.5397,-0.5398,-0.5398,-0.5382,-0.5381,-0.5381,-0.538,-0.5417,-0.5419,-0.5421,0,0,0,0,0,0,0,0,0,0,0,0,0,-0.5279,-0.528,-0.5361,-0.5362,-0.5362,-0.5397,-0.5398,-0.5398,-0.5382,-0.5381,-0.538,-0.5379,-0.5417,-0.5419,-0.5421,0,0,0,0,0,0,0,0,0,0,0,0,0,-0.5315,-0.5281,-0.5361,-0.5358,-0.5359,-0.5397,-0.5398,-0.5398,-0.5383,-0.5381,-0.538,-0.5379,-0.5416,-0.5419,-0.5421,-0.5465,0,0,-0.543,-0.5431,0,0,0,0,0,0,0,0,-0.5313,-0.5318,-0.5358,-0.5359,-0.5359,-0.5384,-0.5382,-0.5421,-0.5383,-0.5374,-0.538,-0.5378,-0.5407,-0.5411,-0.542,-0.5467,-0.5468,-0.543,-0.5432,-0.5433,-0.5434,0,0,0,0,0,0,0,-0.531,-0.5316,-0.5375,-0.5359,-0.5359,-0.5355,-0.5359,-0.539,-0.5398,-0.5374,-0.5373,-0.5378,-0.5407,-0.5418,-0.5421,-0.5469,-0.543,-0.5432,-0.5434,-0.5435,-0.5552,-0.5554,0,0,0,0,0,0,-0.5308,-0.5314,-0.5374,-0.5377,-0.5332,-0.5358,-0.5362,-0.5377,-0.5397,-0.5399,-0.5379,-0.5377,-0.5414,-0.5418,-0.5422,-0.5475,-0.5433,-0.5435,-0.5437,-0.5551,-0.5553,-0.5554,0,0,0,0,0,0,-0.5306,-0.5313,-0.5373,-0.5345,-0.5352,-0.5361,-0.5378,-0.5379,-0.5389,-0.54,-0.5402,-0.5388,-0.5413,-0.5419,-0.5454,-0.5476,-0.5437,-0.5439,-0.5549,-0.5551,-0.5553,-0.558,0,0,0,0,0,0,-0.5304,-0.5313,-0.5329,-0.5345,-0.5354,-0.5404,-0.5379,-0.538,-0.5394,-0.5392,-0.541,-0.5411,-0.5412,-0.545,-0.5457,-0.5479,-0.5441,-0.5547,-0.555,-0.5553,-0.5577,-0.5583,-0.5588,0,0,0,0,0,-0.5301,-0.5336,-0.533,-0.5338,-0.5375,-0.5406,-0.541,-0.5411,-0.5396,-0.5413,-0.542,-0.5411,-0.5472,-0.5454,-0.5462,-0.5485,-0.5546,-0.5549,-0.5552,-0.5575,-0.5582,-0.5588,0,0,0,0,0,0,-0.5322,-0.5338,-0.5332,-0.5373,-0.5388,-0.5403,-0.5424,-0.5418,-0.5438,-0.5435,-0.5434,-0.5438,-0.5475,-0.5483,-0.5463,-0.5528,-0.5507,-0.5512,-0.5521,-0.5528,-0.5533,-0.5531,-0.5444,0,0,0,0,0,-0.5332,-0.5355,-0.5367,-0.5403,-0.541,-0.5416,-0.5429,-0.5428,-0.5444,-0.545,-0.546,-0.5475,-0.5498,-0.5513,-0.5535,-0.5578,-0.5582,-0.5597,-0.5603,-0.5607,-0.5612,-0.5635,-0.5642,-0.5565,-0.5565,-0.5565,0,0,-0.5352,-0.5363,-0.5378,-0.5407,-0.5419,-0.5443,-0.5422,-0.5448,-0.5467,-0.5454,-0.5489,-0.5496,-0.5513,-0.5553,-0.5571,-0.5561,-0.5633,-0.5611,-0.5614,-0.5617,-0.5639,-0.5646,-0.5653,-0.5567,-0.5567,-0.5566,0,0,-0.5401,-0.5412,-0.5443,-0.5454,-0.5472,-0.5475,-0.5482,-0.5498,-0.5502,-0.5536,-0.5528,-0.5549,-0.5588,-0.5601,-0.5612,-0.5665,-0.5658,-0.5672,-0.57,-0.5723,-0.5729,-0.5734,-0.5754,-0.5761,-0.5676,-0.5676,-0.5677,0,-0.5424,-0.5461,-0.5459,-0.5487,-0.55,-0.5489,-0.552,-0.5531,-0.5555,-0.5564,-0.5552,-0.5601,-0.5612,-0.5654,-0.5667,-0.5676,-0.5685,-0.5671,-0.5728,-0.5733,-0.5738,-0.5757,-0.5764,-0.5678,-0.5678,-0.5678,-0.5678,0,-0.5488,-0.5514,-0.5536,-0.5559,-0.5575,-0.5604,-0.5606,-0.5622,-0.5619,-0.5624,-0.5659,-0.5671,-0.5695,-0.5704,-0.5702,-0.5746,-0.574,-0.5728,-0.5707,-0.5748,-0.5765,-0.5772,-0.5681,-0.568,-0.5679,-0.5679,0,0,-0.5554,-0.5575,-0.5583,-0.5593,-0.5611,-0.5631,-0.5659,-0.5682,-0.5696,-0.5712,-0.5736,-0.5769,-0.5758,-0.5771,-0.5769,-0.5789,-0.5831,-0.5775,-0.5775,-0.5786,-0.5881,-0.5891,-0.5899,-0.5825,-0.5826,-0.5827,-0.588,0,-0.5606,-0.5656,-0.5654,-0.5701,-0.5724,-0.5713,-0.5738,-0.5751,-0.5756,-0.5776,-0.5781,-0.5805,-0.5788,-0.5796,-0.5815,-0.5822,-0.585,-0.5817,-0.5848,-0.5849,-0.5846,-0.5908,-0.5919,-0.5968,-0.5887,-0.5888,-0.5889,0,-0.5673,-0.5691,-0.574,-0.5754,-0.5764,-0.5786,-0.5807,-0.5826,-0.5841,-0.5843,-0.5857,-0.5852,-0.588,-0.5857,-0.5897,-0.5875,-0.5887,-0.5892,-0.5894,-0.5898,-0.5872,-0.5915,-0.5983,-0.5991,-0.5899,-0.5898,-0.5898,0,-0.5717,-0.5754,-0.5788,-0.5796,-0.5813,-0.5829,-0.5837,-0.585,-0.5864,-0.5882,-0.5891,-0.5911,-0.5923,-0.5939,-0.594,-0.5923,-0.598,-0.5957,-0.5983,-0.5983,-0.5997,-0.5996,-0.6069,-0.6003,-0.6002,-0.6002,-0.6002,0,-0.5776,-0.5806,-0.5808,-0.5829,-0.5862,-0.586,-0.5893,-0.59,-0.5911,-0.5933,-0.5924,-0.5945,-0.5944,-0.5965,-0.5966,-0.5999,-0.6004,-0.6006,-0.6006,-0.6008,-0.6008,-0.6017,-0.6014,-0.6004,-0.6004,-0.6003,-0.6003,0,-0.5832,-0.5834,-0.587,-0.5883,-0.5886,-0.5911,-0.5921,-0.5941,-0.5944,-0.5972,-0.5979,-0.5984,-0.6008,-0.6009,-0.6037,-0.6038,-0.6078,-0.6074,-0.6073,-0.6073,-0.6099,-0.6097,-0.6182,-0.6193,-0.6117,-0.6118,-0.6119,0,-0.587,-0.5893,-0.5908,-0.5922,-0.593,-0.5953,-0.5966,-0.5964,-0.5979,-0.5997,-0.6015,-0.6038,-0.6057,-0.6096,-0.6102,-0.6123,-0.612,-0.6148,-0.6123,-0.6124,-0.6122,-0.6121,-0.6123,-0.6153,-0.6154,-0.6155,-0.6155,0,-0.5937,-0.5937,-0.5957,-0.5977,-0.5994,-0.601,-0.6025,-0.6037,-0.6036,-0.6053,-0.6078,-0.6092,-0.612,-0.6143,-0.6164,-0.6171,-0.6164,-0.6163,-0.617,-0.6173,-0.6172,-0.6174,-0.6088,-0.6161,-0.6161,-0.616,-0.616,-0.616,-0.5986,-0.6006,-0.602,-0.6042,-0.6053,-0.6067,-0.6086,-0.6091,-0.6111,-0.6134,-0.6131,-0.6159,-0.6172,-0.6199,-0.6208,-0.6229,-0.622,-0.623,-0.6233,-0.6236,-0.6239,-0.6167,-0.6233,-0.6232,-0.6232,-0.6232,-0.6232,0,-0.6054,-0.6062,-0.6082,-0.6103,-0.6121,-0.6111,-0.6127,-0.6142,-0.6166,-0.6179,-0.6197,-0.6225,-0.6247,-0.6255,-0.6276,-0.6292,-0.6289,-0.6297,-0.6297,-0.6299,-0.6246,-0.6238,-0.6299,-0.6299,-0.6299,-0.6299,-0.6299,-0.6299,-0.6092,-0.6125,-0.6126,-0.6165,-0.6172,-0.6199,-0.6208,-0.6221,-0.6231,-0.6263,-0.6281,-0.6285,-0.6296,-0.6318,-0.6338,-0.6339,-0.6348,-0.6359,-0.6359,-0.6309,-0.6303,-0.6296,-0.6289,-0.636,-0.636,-0.641,-0.6411,-0.6411]},{"header":{"parameterUnit":"m.s-1","parameterCategory":1,"la1":30.2991,"la2":30.254,"lo1":-89.0895,"lo2":-89.0444,"dy":0.0017,"dx":0.0017,"nx":28,"ny":28,"refTime":"2024-10-07T03:00:00:Z","depth":0,"parameterNumber":3,"parameterNumberName":"V-component_of_WINDS"},"data":[0,0,0,0,0,0,0,0,0,0,0,0,0,0,0,0,0,0,0,0,0,0,0,0,0,0,0,0,0,0,0,0,0,0,0,0,0,0,0,0,0,0,0,0,0,0,0,0,0,0,0,0,0,0,0,0,0,0,-5.1275,-5.1275,0,-5.1329,-5.1329,-5.133,-5.1259,-5.1256,-5.1254,-5.1251,-5.1301,-5.1304,-5.1308,0,0,0,0,0,0,0,0,0,0,0,0,0,-5.1105,-5.1108,-5.1275,-5.1275,-5.1276,-5.1329,-5.1329,-5.133,-5.1259,-5.1256,-5.1253,-5.125,-5.13,-5.1304,-5.1308,0,0,0,0,0,0,0,0,0,0,0,0,0,-5.117,-5.1109,-5.1275,-5.1247,-5.1245,-5.1328,-5.1329,-5.133,-5.126,-5.1256,-5.1252,-5.1249,-5.1298,-5.1304,-5.1309,-5.142,0,0,-5.1326,-5.1328,0,0,0,0,0,0,0,0,-5.1167,-5.1177,-5.1251,-5.1249,-5.1247,-5.1283,-5.1287,-5.136,-5.1261,-5.1254,-5.1251,-5.1247,-5.1298,-5.1303,-5.1321,-5.1422,-5.1424,-5.1327,-5.133,-5.1332,-5.1334,0,0,0,0,0,0,0,-5.1162,-5.1174,-5.1296,-5.1252,-5.125,-5.123,-5.1235,-5.1301,-5.1296,-5.1254,-5.1249,-5.1257,-5.1296,-5.1316,-5.1322,-5.1425,-5.1326,-5.1331,-5.1335,-5.1337,-5.1619,-5.1623,0,0,0,0,0,0,-5.1162,-5.1171,-5.1294,-5.1297,-5.1197,-5.1237,-5.1242,-5.1275,-5.1296,-5.1295,-5.126,-5.1254,-5.1309,-5.1316,-5.1323,-5.1455,-5.1332,-5.1337,-5.1341,-5.1615,-5.162,-5.1625,0,0,0,0,0,0,-5.1158,-5.1173,-5.1292,-5.1233,-5.1246,-5.1244,-5.1281,-5.1279,-5.1299,-5.13,-5.1298,-5.1282,-5.1306,-5.1316,-5.1397,-5.1455,-5.134,-5.1345,-5.161,-5.1617,-5.1622,-5.1718,0,0,0,0,0,0,-5.1154,-5.1173,-5.1216,-5.1234,-5.125,-5.1366,-5.1285,-5.1282,-5.1309,-5.1301,-5.132,-5.132,-5.1304,-5.1389,-5.1402,-5.1461,-5.1349,-5.1605,-5.1613,-5.162,-5.171,-5.1727,-5.1742,0,0,0,0,0,-5.1148,-5.1239,-5.1219,-5.1234,-5.1304,-5.137,-5.1378,-5.136,-5.1314,-5.1357,-5.1358,-5.1319,-5.1447,-5.1398,-5.1412,-5.1473,-5.1601,-5.1611,-5.162,-5.1702,-5.1723,-5.1741,0,0,0,0,0,0,-5.1226,-5.1241,-5.1218,-5.1319,-5.1344,-5.1358,-5.1411,-5.1382,-5.1419,-5.141,-5.1383,-5.1388,-5.1475,-5.1482,-5.1427,-5.1582,-5.1516,-5.1529,-5.1574,-5.1594,-5.161,-5.1606,-5.1354,0,0,0,0,0,-5.1255,-5.1309,-5.1319,-5.1406,-5.142,-5.1414,-5.1442,-5.1425,-5.1449,-5.1459,-5.1466,-5.1489,-5.1534,-5.1564,-5.1606,-5.171,-5.1713,-5.1759,-5.1775,-5.1788,-5.18,-5.1855,-5.1876,-5.1655,-5.1655,-5.1655,0,0,-5.1315,-5.133,-5.1366,-5.1422,-5.144,-5.1495,-5.1423,-5.1484,-5.1524,-5.1467,-5.1545,-5.1551,-5.1575,-5.1668,-5.171,-5.1677,-5.1861,-5.18,-5.1811,-5.1815,-5.1867,-5.1888,-5.1906,-5.1662,-5.1661,-5.166,0,0,-5.1453,-5.147,-5.1546,-5.1565,-5.1593,-5.1588,-5.1607,-5.1625,-5.1628,-5.1706,-5.1665,-5.1711,-5.1789,-5.1808,-5.1828,-5.1974,-5.194,-5.1988,-5.2071,-5.2126,-5.2143,-5.2159,-5.2211,-5.223,-5.1999,-5.2,-5.2,0,-5.1524,-5.1607,-5.1587,-5.1652,-5.1678,-5.1631,-5.1706,-5.1725,-5.1765,-5.1783,-5.1746,-5.1845,-5.1857,-5.1955,-5.1991,-5.2008,-5.2027,-5.1986,-5.2143,-5.2158,-5.2172,-5.2221,-5.2241,-5.2005,-5.2005,-5.2004,-5.2004,0,-5.1692,-5.175,-5.1807,-5.1849,-5.1881,-5.1951,-5.194,-5.1975,-5.1956,-5.1955,-5.2034,-5.2048,-5.2092,-5.2114,-5.2095,-5.2209,-5.2187,-5.2147,-5.2081,-5.2199,-5.2245,-5.2263,-5.2014,-5.2012,-5.201,-5.2009,0,0,-5.188,-5.1912,-5.1933,-5.1952,-5.198,-5.2023,-5.209,-5.2135,-5.2165,-5.2194,-5.2248,-5.2316,-5.228,-5.2302,-5.2285,-5.2333,-5.2448,-5.2287,-5.2287,-5.2316,-5.2574,-5.2604,-5.2626,-5.2426,-5.2429,-5.2432,-5.2572,0,-5.2018,-5.2136,-5.2121,-5.2233,-5.2287,-5.2244,-5.2302,-5.2324,-5.2325,-5.2368,-5.2368,-5.2417,-5.2365,-5.2378,-5.2424,-5.2425,-5.2499,-5.2414,-5.2475,-5.2477,-5.2471,-5.265,-5.2682,-5.2814,-5.259,-5.2593,-5.2595,0,-5.2195,-5.2233,-5.2352,-5.2372,-5.2394,-5.2447,-5.2487,-5.253,-5.2554,-5.2551,-5.2577,-5.2551,-5.2616,-5.2549,-5.2638,-5.2581,-5.2604,-5.2609,-5.2613,-5.2618,-5.2543,-5.266,-5.2855,-5.2875,-5.2623,-5.2621,-5.2619,0,-5.232,-5.24,-5.2482,-5.2499,-5.2525,-5.2564,-5.2576,-5.2596,-5.2625,-5.2659,-5.2677,-5.2718,-5.274,-5.2772,-5.2757,-5.271,-5.2849,-5.278,-5.2847,-5.2848,-5.2878,-5.2876,-5.308,-5.2894,-5.2894,-5.2893,-5.2893,0,-5.2476,-5.255,-5.2539,-5.2589,-5.2671,-5.2652,-5.2732,-5.2739,-5.2758,-5.2807,-5.2772,-5.2818,-5.2796,-5.2841,-5.283,-5.2905,-5.2915,-5.2914,-5.291,-5.2917,-5.2917,-5.2932,-5.2922,-5.2898,-5.2897,-5.2896,-5.2895,0,-5.2629,-5.2625,-5.2711,-5.273,-5.2736,-5.2795,-5.281,-5.2856,-5.2854,-5.2917,-5.2931,-5.2927,-5.2978,-5.2967,-5.3022,-5.3014,-5.3109,-5.3094,-5.3102,-5.3098,-5.3166,-5.316,-5.3386,-5.3415,-5.321,-5.3212,-5.3214,0,-5.2729,-5.2786,-5.2811,-5.2843,-5.2859,-5.291,-5.2939,-5.2922,-5.2954,-5.2987,-5.3029,-5.3077,-5.3115,-5.3197,-5.3199,-5.3241,-5.3226,-5.3302,-5.3232,-5.3237,-5.3227,-5.3224,-5.3229,-5.3316,-5.3319,-5.332,-5.3322,0,-5.2907,-5.2902,-5.2947,-5.2992,-5.3029,-5.3063,-5.3093,-5.312,-5.3105,-5.3142,-5.3195,-5.3225,-5.3282,-5.333,-5.3369,-5.3379,-5.3348,-5.3344,-5.3362,-5.337,-5.3373,-5.3372,-5.314,-5.3339,-5.3337,-5.3336,-5.3335,-5.3335,-5.3037,-5.3085,-5.3111,-5.3162,-5.3184,-5.3213,-5.3258,-5.3263,-5.3307,-5.3354,-5.3341,-5.3401,-5.3423,-5.3472,-5.3487,-5.3533,-5.3504,-5.3529,-5.3536,-5.3542,-5.3551,-5.3366,-5.354,-5.3539,-5.3539,-5.3538,-5.3538,0,-5.3212,-5.3227,-5.3275,-5.332,-5.336,-5.3329,-5.3361,-5.3396,-5.345,-5.3475,-5.3513,-5.3574,-5.362,-5.3626,-5.3669,-5.3705,-5.3691,-5.3717,-5.3714,-5.3716,-5.3574,-5.3555,-5.3727,-5.3727,-5.3726,-5.3726,-5.3726,-5.3726,-5.3309,-5.339,-5.3388,-5.3479,-5.3492,-5.3553,-5.3574,-5.36,-5.3619,-5.369,-5.3729,-5.3733,-5.375,-5.3794,-5.3835,-5.3835,-5.3853,-5.3884,-5.3878,-5.3745,-5.3726,-5.3708,-5.369,-5.3887,-5.3888,-5.4017,-5.4018,-5.4019]}]]